Regional Weather Roundup
Issued by NWS

Home | Current Version | Previous Version | Graphics & Text | Print | Product List | Glossary On
Versions: 1 2 3 4 5 6 7 8 9 10 11 12 13 14 15 16 17 18 19 20 21 22 23 24 25 26 27 28 29 30 31 32 33 34 35 36 37 38 39 40 41 42 43 44 45 46 47 48 49 50
000
ASUS45 KABQ 080401
RWRNM
NEW MEXICO REGIONAL WEATHER ROUNDUP
NATIONAL WEATHER SERVICE ALBUQUERQUE NM
1000 PM MDT TUE JUL 07 2015

NOTE: "FAIR" MEANS FEW OR NO CLOUDS BELOW 12,000 FEET AGL WITH NO
       SIGNIFICANT WEATHER OR OBSTRUCTIONS TO VISION.

      THIS PRODUCT IS RELEASED AS TWO VERSIONS.  ONE VERSION NEAR
      THE TOP OF THE HOUR CONTAINING PRELIMINARY DATA FROM ALBUQUERQUE
      AND OTHER STATIONS.  A FINAL VERSION WITH ADDITIONAL DATA IS
      ISSUED ABOUT 10 MINUTES AFTER THE HOUR.

NMZ501-503-504-510>518-080500-
NORTHWEST PLATEAU/NORTHCENTRAL MOUNTAINS

CITY           SKY/WX    TMP DP  RH WIND       PRES   REMARKS
FARMINGTON     MOCLDY    68  49  50 E7        30.09R
SANTA FE       LGT RAIN  58  52  80 SW6       30.21F
TAOS           CLOUDY    52  43  71 SE13      30.25F

$$
NMZ402-403-502-505>509-080500-
WESTCENTRAL MOUNTAINS/SOUTHWEST MOUNTAINS

CITY           SKY/WX    TMP DP  RH WIND       PRES   REMARKS
GALLUP         MOCLDY    61  48  62 NE3       30.16S
SILVER CITY      N/A     66  54  63 NW7       30.13R

$$
NMZ407-409-411-412-080500-
SOUTHERN DESERTS

CITY           SKY/WX    TMP DP  RH WIND       PRES   REMARKS
DEMING         PTCLDY    72  56  57 SE3       30.03R
ALAMOGORDO     MOCLDY    68  61  77 S10       30.07R
T OR C         CLEAR     73  52  47 W5        30.07R

$$
NMZ519>523-080500-
CENTRAL VALLEYS/CENTRAL HIGHLANDS

CITY           SKY/WX    TMP DP  RH WIND       PRES   REMARKS
ALBUQUERQUE    LGT RAIN  69  57  65 NE15G23   30.12R
DOUBLE EAGLE   MOCLDY    61  55  82 N16       30.17R
MORIARTY ARPT    N/A     55  51  86 N5        30.25R
CLINES CORNERS MOCLDY    53  49  86 E6        30.26R
BELEN          NOT AVBL
SOCORRO        NOT AVBL

$$
NMZ524>526-539-540-080500-
SOUTHCENTRAL MOUNTAINS

CITY           SKY/WX    TMP DP  RH WIND       PRES   REMARKS
RUIDOSO        NOT AVBL

$$
NMZ527>531-080500-
NORTHEAST HIGHLANDS/NORTHEAST PLAINS

CITY           SKY/WX    TMP DP  RH WIND       PRES   REMARKS
LAS VEGAS      CLOUDY    56  54  93 S12       30.26R FOG
RATON          CLOUDY    59  56  89 CALM      30.22S FOG
CLAYTON        LGT RAIN  63  55  75 SE6       30.18R

$$
NMZ532>537-080500-
EASTCENTRAL PLAINS

CITY           SKY/WX    TMP DP  RH WIND       PRES   REMARKS
TUCUMCARI      MOCLDY    67  59  75 CALM      30.13R HAZE
CANNON AFB     NOT AVBL
CLOVIS AIRPORT PTCLDY    63  59  88 CALM        N/A

$$
NMZ028-029-538-080500-
SOUTHEAST PLAINS

CITY           SKY/WX    TMP DP  RH WIND       PRES   REMARKS
ROSWELL        CLOUDY    72  59  63 E10       30.08R
ARTESIA        CLOUDY    72  66  83 E6G14     30.10R
CARLSBAD       CLOUDY    69  63  81 S13       30.01S
HOBBS          MOCLDY    66  66 100 NE9       30.12S


$$



USA.gov is the U.S. government's official web portal to all federal, state and local government web resources and services.